[[{"header":{"parameterUnit":"m.s-1","parameterCategory":1,"la1":30.2991,"la2":30.254,"lo1":-89.0895,"lo2":-89.0444,"dy":0.0017,"dx":0.0017,"nx":28,"ny":28,"refTime":"2024-06-22T09:00:00:Z","depth":0,"parameterNumber":2,"parameterNumberName":"U-component_of_WINDS"},"data":[0,0,0,0,0,0,0,0,0,0,0,0,0,0,0,0,0,0,0,0,0,0,0,0,0,0,0,0,0,0,0,0,0,0,0,0,0,0,0,0,0,0,0,0,0,0,0,0,0,0,0,0,0,0,0,0,0,0,1.356,1.3561,0,1.3658,1.3659,1.366,1.3697,1.3696,1.3696,1.3696,1.3793,1.3796,1.3799,0,0,0,0,0,0,0,0,0,0,0,0,0,1.3403,1.3406,1.356,1.3562,1.3563,1.3657,1.3659,1.366,1.3697,1.3696,1.3696,1.3696,1.3792,1.3796,1.3799,0,0,0,0,0,0,0,0,0,0,0,0,0,1.3483,1.3407,1.356,1.3592,1.3596,1.3657,1.3659,1.3661,1.3697,1.3696,1.3696,1.3695,1.3791,1.3795,1.3799,1.3835,0,0,1.3813,1.3814,0,0,0,0,0,0,0,0,1.3478,1.3489,1.3586,1.359,1.3595,1.3665,1.3639,1.3719,1.3697,1.3658,1.3696,1.3695,1.3751,1.3758,1.3777,1.3839,1.3844,1.3813,1.3816,1.3817,1.3819,0,0,0,0,0,0,0,1.3473,1.3485,1.3599,1.3588,1.3593,1.3601,1.3612,1.3654,1.3706,1.3662,1.3665,1.3676,1.3753,1.3773,1.378,1.3845,1.3813,1.3817,1.3819,1.3821,1.394,1.394,0,0,0,0,0,0,1.3462,1.348,1.3596,1.3602,1.3534,1.3604,1.3616,1.3643,1.3705,1.3715,1.3676,1.3677,1.3766,1.3775,1.3783,1.3828,1.3817,1.3821,1.3824,1.3939,1.394,1.394,0,0,0,0,0,0,1.3459,1.3472,1.3592,1.3542,1.3557,1.3607,1.3636,1.3645,1.3665,1.3716,1.3725,1.3688,1.3766,1.3777,1.3822,1.3832,1.3823,1.3827,1.3938,1.3939,1.394,1.3918,0,0,0,0,0,0,1.3454,1.3471,1.3485,1.3542,1.356,1.3629,1.3637,1.3647,1.3673,1.3675,1.3729,1.3738,1.3766,1.3815,1.3826,1.3838,1.3831,1.3938,1.3939,1.394,1.3918,1.3918,1.3918,0,0,0,0,0,1.3448,1.3475,1.3486,1.35,1.358,1.363,1.364,1.3673,1.3673,1.3688,1.3721,1.3736,1.3829,1.3819,1.3832,1.3845,1.3937,1.3939,1.394,1.3918,1.3918,1.3918,0,0,0,0,0,0,1.3418,1.3483,1.3496,1.3542,1.358,1.3636,1.3655,1.3672,1.371,1.3711,1.3749,1.3761,1.3802,1.3828,1.3816,1.3882,1.3884,1.3888,1.3864,1.3864,1.3864,1.3857,1.3834,0,0,0,0,0,1.3417,1.3453,1.3508,1.3543,1.3562,1.3605,1.3628,1.365,1.3691,1.3707,1.3743,1.3781,1.3819,1.3843,1.3881,1.3922,1.3934,1.3938,1.3938,1.3937,1.394,1.3963,1.3965,1.3945,1.3945,1.3945,0,0,1.3415,1.3455,1.3475,1.3538,1.357,1.3606,1.3618,1.3656,1.3682,1.3712,1.3757,1.3784,1.3829,1.3872,1.3893,1.3895,1.3948,1.3939,1.3938,1.3942,1.3965,1.3967,1.3968,1.3946,1.3945,1.3945,0,0,1.3429,1.3463,1.3496,1.3528,1.3577,1.3605,1.3613,1.3666,1.3686,1.3731,1.3754,1.3785,1.385,1.3881,1.3905,1.393,1.3945,1.3941,1.3941,1.3963,1.3964,1.3966,1.3974,1.3977,1.3944,1.3943,1.3943,0,1.342,1.3476,1.3511,1.3547,1.3573,1.3603,1.3635,1.3664,1.3722,1.3739,1.3741,1.3822,1.3855,1.3905,1.3911,1.393,1.3939,1.3935,1.3962,1.3964,1.3966,1.3974,1.3977,1.3943,1.3943,1.3943,1.3943,0,1.3461,1.3499,1.352,1.3576,1.3605,1.3639,1.3678,1.3703,1.3722,1.375,1.3794,1.3834,1.388,1.3894,1.3913,1.3946,1.3946,1.3954,1.3957,1.3966,1.3974,1.3978,1.3941,1.3942,1.3942,1.3942,0,0,1.346,1.3534,1.3541,1.3566,1.3622,1.3651,1.3686,1.3732,1.3752,1.379,1.382,1.3873,1.3881,1.3909,1.3931,1.395,1.3966,1.3956,1.3958,1.3956,1.4005,1.3998,1.4001,1.3977,1.3978,1.3979,1.4001,0,1.3481,1.3546,1.3578,1.3628,1.3663,1.3691,1.3721,1.3758,1.3785,1.3817,1.3847,1.3884,1.3892,1.3908,1.3929,1.396,1.3977,1.3959,1.4004,1.4005,1.3992,1.4006,1.3999,1.4018,1.4005,1.4005,1.4006,0,1.3514,1.3553,1.3607,1.3658,1.3673,1.37,1.3744,1.3775,1.3817,1.3835,1.3865,1.3887,1.3923,1.3924,1.3974,1.3961,1.3982,1.4,1.4001,1.4007,1.4006,1.4011,1.4025,1.4028,1.4011,1.4011,1.401,0,1.3507,1.3572,1.3613,1.3634,1.3694,1.3712,1.3738,1.3779,1.3804,1.3842,1.3858,1.3899,1.3922,1.3953,1.3985,1.3982,1.4032,1.4035,1.4048,1.4047,1.4057,1.4056,1.4074,1.407,1.407,1.407,1.407,0,1.3526,1.3558,1.361,1.3635,1.3671,1.3707,1.3742,1.3769,1.3806,1.3836,1.3862,1.3889,1.393,1.3963,1.3988,1.4026,1.4036,1.4051,1.4057,1.4048,1.4046,1.4062,1.4061,1.4071,1.4071,1.4071,1.4071,0,1.3524,1.3561,1.3606,1.366,1.3674,1.3698,1.3743,1.3767,1.3795,1.3833,1.3844,1.3887,1.3926,1.3962,1.4014,1.4031,1.4069,1.4077,1.4055,1.4058,1.4068,1.4067,1.4098,1.4103,1.4095,1.4095,1.4095,0,1.3534,1.3559,1.3615,1.3637,1.3663,1.3698,1.3724,1.376,1.3785,1.3834,1.3853,1.3894,1.3929,1.399,1.4026,1.4066,1.4075,1.4083,1.4081,1.4071,1.4074,1.4072,1.4074,1.4082,1.4082,1.4082,1.4082,0,1.3548,1.3565,1.3601,1.3643,1.3673,1.3708,1.3744,1.376,1.3803,1.383,1.3871,1.3898,1.3951,1.3991,1.4035,1.406,1.4078,1.4082,1.4087,1.4078,1.4064,1.4072,1.4054,1.4081,1.4081,1.4081,1.4081,1.4082,1.3552,1.3575,1.3618,1.3657,1.3688,1.372,1.3746,1.3777,1.3812,1.3858,1.3877,1.3918,1.3958,1.4019,1.4044,1.4076,1.408,1.4087,1.4089,1.409,1.4088,1.4059,1.4085,1.4085,1.4085,1.4085,1.4085,0,1.3566,1.3595,1.3631,1.368,1.3711,1.3725,1.3765,1.379,1.3826,1.3862,1.3896,1.3942,1.3981,1.402,1.4061,1.4079,1.4088,1.4089,1.4087,1.4093,1.4083,1.4074,1.4081,1.4081,1.4081,1.4081,1.4081,1.4081,1.3578,1.3618,1.3639,1.3694,1.3723,1.3764,1.3785,1.3815,1.3844,1.3895,1.3927,1.3953,1.399,1.4033,1.4069,1.408,1.4093,1.4091,1.4104,1.4094,1.4094,1.4094,1.4086,1.4094,1.4094,1.4111,1.4111,1.4111]},{"header":{"parameterUnit":"m.s-1","parameterCategory":1,"la1":30.2991,"la2":30.254,"lo1":-89.0895,"lo2":-89.0444,"dy":0.0017,"dx":0.0017,"nx":28,"ny":28,"refTime":"2024-06-22T09:00:00:Z","depth":0,"parameterNumber":3,"parameterNumberName":"V-component_of_WINDS"},"data":[0,0,0,0,0,0,0,0,0,0,0,0,0,0,0,0,0,0,0,0,0,0,0,0,0,0,0,0,0,0,0,0,0,0,0,0,0,0,0,0,0,0,0,0,0,0,0,0,0,0,0,0,0,0,0,0,0,0,3.2204,3.2204,0,3.22,3.22,3.22,3.2137,3.2135,3.2134,3.2132,3.2128,3.2129,3.213,0,0,0,0,0,0,0,0,0,0,0,0,0,3.2159,3.216,3.2204,3.2204,3.2204,3.22,3.22,3.22,3.2137,3.2135,3.2133,3.2132,3.2127,3.2129,3.213,0,0,0,0,0,0,0,0,0,0,0,0,0,3.2169,3.216,3.2204,3.2173,3.217,3.22,3.22,3.22,3.2138,3.2135,3.2133,3.2131,3.2127,3.2129,3.2131,3.2191,0,0,3.2137,3.2138,0,0,0,0,0,0,0,0,3.2168,3.2171,3.2177,3.2175,3.2172,3.2166,3.2182,3.2197,3.2138,3.215,3.2132,3.213,3.2142,3.2143,3.2147,3.2191,3.219,3.2137,3.2138,3.2139,3.214,0,0,0,0,0,0,0,3.2168,3.2171,3.2203,3.2178,3.2174,3.2158,3.2157,3.2184,3.216,3.2149,3.2144,3.2144,3.214,3.2146,3.2147,3.219,3.2137,3.2139,3.214,3.2141,3.2281,3.2283,0,0,0,0,0,0,3.2172,3.217,3.2203,3.2202,3.2164,3.2161,3.216,3.2171,3.2159,3.2155,3.2146,3.2141,3.2143,3.2145,3.2146,3.2215,3.2139,3.2141,3.2142,3.2278,3.2281,3.2284,0,0,0,0,0,0,3.2171,3.2175,3.2203,3.2185,3.2187,3.2164,3.2177,3.2172,3.2177,3.2157,3.2153,3.2156,3.2141,3.2144,3.218,3.2214,3.2142,3.2144,3.2275,3.2279,3.2283,3.2353,0,0,0,0,0,0,3.217,3.2175,3.2198,3.2186,3.2189,3.2237,3.2179,3.2173,3.218,3.2174,3.2165,3.2162,3.214,3.2177,3.2182,3.2215,3.2145,3.2272,3.2277,3.2282,3.2348,3.2359,3.2368,0,0,0,0,0,3.2168,3.2218,3.22,3.2204,3.2217,3.2239,3.224,3.2214,3.2183,3.2206,3.2193,3.2162,3.221,3.2181,3.2186,3.2221,3.227,3.2276,3.2281,3.2343,3.2357,3.2368,0,0,0,0,0,0,3.2235,3.2216,3.2195,3.2243,3.2243,3.2228,3.2256,3.223,3.2238,3.2232,3.2199,3.2198,3.2239,3.2233,3.2202,3.2278,3.2234,3.2241,3.2279,3.2292,3.2302,3.2302,3.2147,0,0,0,0,0,3.2255,3.2275,3.2257,3.2301,3.2302,3.2279,3.2288,3.2268,3.2266,3.2266,3.2256,3.2256,3.2271,3.2281,3.2294,3.2347,3.2343,3.2373,3.2383,3.2392,3.2398,3.2424,3.2437,3.2303,3.2303,3.2303,0,0,3.2298,3.229,3.2304,3.2314,3.2312,3.2333,3.228,3.2304,3.2319,3.227,3.2303,3.2296,3.2294,3.2338,3.2357,3.2335,3.2434,3.2399,3.2406,3.2407,3.2431,3.2444,3.2455,3.2307,3.2306,3.2305,0,0,3.2384,3.2381,3.2416,3.2415,3.2412,3.2396,3.2404,3.2394,3.2387,3.242,3.2383,3.24,3.2427,3.2426,3.243,3.2515,3.2487,3.2521,3.2574,3.26,3.2611,3.262,3.265,3.2661,3.2527,3.2527,3.2527,0,3.2437,3.2467,3.2438,3.2464,3.2469,3.2426,3.246,3.2461,3.2462,3.2467,3.2442,3.2473,3.2469,3.2512,3.2533,3.2537,3.2545,3.2521,3.2612,3.2621,3.2629,3.2656,3.2668,3.2531,3.2531,3.253,3.253,0,3.2531,3.2552,3.2581,3.2582,3.2591,3.2622,3.2597,3.2609,3.2588,3.2575,3.2608,3.2602,3.2611,3.262,3.26,3.266,3.2647,3.2618,3.2573,3.2646,3.2671,3.2682,3.2537,3.2535,3.2534,3.2533,0,0,3.2659,3.2644,3.2655,3.2655,3.2648,3.2664,3.2692,3.2701,3.2712,3.2715,3.2737,3.276,3.2733,3.2736,3.2716,3.2739,3.2806,3.2707,3.2706,3.2724,3.287,3.2892,3.2905,3.2787,3.2789,3.2791,3.287,0,3.2742,3.2789,3.2764,3.2815,3.2833,3.2791,3.2816,3.2814,3.2803,3.2817,3.2804,3.282,3.2784,3.2785,3.2806,3.2794,3.2835,3.2788,3.2807,3.2808,3.2808,3.2918,3.2941,3.3016,3.288,3.2882,3.2883,0,3.2845,3.2851,3.2903,3.2892,3.2898,3.2921,3.2927,3.2941,3.2938,3.2928,3.2932,3.2906,3.2932,3.2889,3.2925,3.2894,3.29,3.2895,3.2897,3.2897,3.2849,3.292,3.304,3.3051,3.2899,3.2897,3.2896,0,3.2932,3.2953,3.2987,3.2988,3.2976,3.2992,3.2988,3.2983,3.299,3.2995,3.2999,3.3008,3.3013,3.302,3.2996,3.2967,3.3035,3.299,3.3027,3.3028,3.3042,3.3042,3.3164,3.3049,3.3049,3.3048,3.3048,0,3.3026,3.306,3.3025,3.3046,3.3082,3.3052,3.3089,3.308,3.3076,3.3093,3.3059,3.3076,3.3045,3.306,3.3042,3.3073,3.3076,3.3068,3.3063,3.3071,3.3072,3.3074,3.3068,3.3051,3.3051,3.305,3.305,0,3.3129,3.3108,3.3141,3.3127,3.3124,3.3151,3.3138,3.3157,3.3142,3.3166,3.3169,3.3147,3.3162,3.314,3.3153,3.3141,3.3185,3.3172,3.3186,3.3181,3.3219,3.3215,3.3346,3.3361,3.3238,3.3239,3.324,0,3.319,3.3215,3.3202,3.3212,3.3209,3.3225,3.3231,3.3203,3.3211,3.3209,3.3228,3.324,3.3248,3.3274,3.3259,3.3269,3.3255,3.3301,3.3257,3.3263,3.3255,3.3253,3.3255,3.3309,3.3311,3.3312,3.3313,0,3.33,3.3288,3.3299,3.3306,3.3314,3.3319,3.332,3.333,3.33,3.3311,3.3326,3.3332,3.3345,3.3357,3.3363,3.3358,3.3331,3.3327,3.3336,3.3344,3.335,3.3346,3.3209,3.3324,3.3323,3.3322,3.3321,3.3321,3.3383,3.3402,3.3396,3.3409,3.3407,3.3409,3.3425,3.3413,3.3425,3.3432,3.3415,3.3434,3.343,3.3434,3.3433,3.3447,3.3427,3.344,3.3443,3.3447,3.3452,3.3349,3.3448,3.3448,3.3448,3.3447,3.3447,0,3.349,3.3484,3.3496,3.3499,3.3509,3.3482,3.3482,3.3492,3.3509,3.3507,3.3516,3.3532,3.3544,3.353,3.3539,3.3553,3.3541,3.3556,3.3554,3.3554,3.347,3.3461,3.3566,3.3566,3.3566,3.3566,3.3566,3.3566,3.3547,3.3578,3.3565,3.3595,3.3588,3.3606,3.3608,3.361,3.3608,3.3628,3.3637,3.3628,3.3621,3.3629,3.3638,3.3634,3.3638,3.3658,3.365,3.3571,3.356,3.3548,3.354,3.366,3.366,3.3732,3.3732,3.3733]}]]